Location: Byszew
(52.1813°N, 19.2693°E)
Time: 18:25:21
(UTC+00:00)

Cosmos 1844 - Pass Details

Date: 03 March 2021
Orbit: 822 x 868 km, 70.9° (Epoch: 16 April)

Event Time Altitude Azimuth Distance (km) Brightness Sun altitude
Rises 16:49:05 0° 329° (NNW) 3,465 7.3 -4.3°
Reaches altitude 10° 16:51:43 10° 337° (NNW) 2,522 6.4 -4.7°
Maximum altitude 16:57:13 42° 47° (NE) 1,222 4.2 -5.5°
Drops below altitude 10° 17:02:38 10° 118° (ESE) 2,489 5.6 -6.4°
Enters shadow 17:05:00 - 125° (SE) 3,341 6.3 -6.7°
